COSMOS 2251 DEB, 33757

Orbit data source: Space-Track

COSMOS 2251 DEB, 33757 is space debris in LEO originally from a launch on Wed, 16 Jun 1993 UTC launched from the Plesetsk Missile And Space Complex (PKMTR). The debris from Iridium 33, an American commercial communications satellite, has been tracked extensively since its accidental collision with the defunct Russian satellite Cosmos 2251 in 2009. This event, occurring at high speed in low Earth orbit (LEO), generated thousands of pieces of space debris, significantly increasing the risk of further collisions. The Iridium 33 debris cloud has impacted space traffic management and orbital debris mitigation strategies, making it a subject of ongoing study in space situational awareness.

Loading next visibility...
Identifier
33757, 1993-036E
Orbit
LEO
Country
Flag of CISCIS
Related business
Manufacturer
Unknown
Mission
Spacecraft
Bus & Motor
Unknown
Mass
Unknown
Launch date (UTC)
1993-06-16 (32 years ago)
Launch vehicle
Unknown
Launch site
Plesetsk Missile And Space Complex (PKMTR)
Object type
Payload
Rocket body
Debris
Shape & HBR
Unknown shape, 0.2 m
Radar Cross Section
Medium (>0.1 m² and <1 m²)

Expand to show TLE details & history
Last TLE update: 5 hours ago

TLE from 5 hours ago
0 COSMOS 2251 DEB
1 33757U 93036E   25300.45259833  .00000159  00000-0  67973-4 0  9996
2 33757  74.0381  48.1067 0013744  75.7521 356.8856 14.32564491873336
Epoch: 2025-10-27T10:51Z
TLE epoch observation values (Epoch: 2025-10-27T10:51:44.495Z)
Latitude
66.67291°
Longitude
-109.60204°
Altitude
784.512 km
Speed
7.473 km/s
True Right ascension
05h 57m 33s
True Declination
66° 32' 53"
Sunlit
Object was in daylight at epoch
Visualization orbit readout
Latitude
Unknown
Longitude
Unknown
Altitude
Unknown
Speed
Unknown
Apparent Right ascension
Unknown
Apparent Declination
Unknown
Sunlit
N/A
Visualization observer readout
Local Sidereal Time
11:11:27
Azimuth
Unknown
Elevation
Unknown
Doppler factor
Unknown
Orbital elements
Apogee altitude
790.638 km
Perigee altitude
770.96 km
Semi-major axis
7,158.936 km
Eccentricity
0.00137
Inclination
74.0381°
RAAN
48.1067°
Arg. of periapsis
75.7521°
True anomaly
356.87703°
Mean anomaly
356.8856°
Eccentric anomaly
356.88132°
Mean motion
3.58319 °/min
Orbital period
100.47 mins
BSTAR
0.000067973
Loading maneuver chart data...
Computing Atmospheric mass density...

Documentation

Showing up to 5 results
|